Regional Weather Roundup
Issued by NWS Green Bay, WI

Home | Current Version | Previous Version | Graphics & Text | Print | Product List | Glossary Off
Versions: 1 2 3 4 5 6 7 8 9 10 11 12 13 14 15 16 17 18 19 20 21 22 23 24 25 26 27 28 29 30 31 32 33 34 35 36 37 38 39 40 41 42 43 44 45 46 47 48 49 50

000
ASUS43 KGRB 272100
RWRGRB

NORTH-CENTRAL AND NORTHEAST WISCONSIN REGIONAL WEATHER ROUNDUP
NATIONAL WEATHER SERVICE GREEN BAY WI
400 PM CDT WED APR 27 2016

WIZ005-009-010>012-018-019-272200-
NORTH CENTRAL WISCONSIN

CITY           SKY/WX    TMP DP  RH WIND       PRES   REMARKS
IRONWOOD       MOSUNNY   50  21  32 N9        29.99F
MANITOWISH WTR NOT AVBL
ARBOR VITAE    NOT AVBL
EAGLE RIVER    NOT AVBL
LAND O LAKES   NOT AVBL
RHINELANDER    CLOUDY    55  16  21 E14G26    29.97F
PHILLIPS       CLOUDY    54  21  28 E13G18    29.93F
ANTIGO         NOT AVBL
TOMAHAWK       NOT AVBL
MERRILL        CLOUDY    55  20  25 E12G24    29.94F
$$

WIZ013-073-272200-
NORTHEAST WISCONSIN

CITY           SKY/WX    TMP DP  RH WIND       PRES   REMARKS
IRON MOUNTAIN  CLOUDY    53  11  18 NE9       30.00F
MARINETTE      MOSUNNY   46  21  36 E13       30.03S
$$

WIZ017-030-035>037-045-272200-
CENTRAL WISCONSIN

CITY           SKY/WX    TMP DP  RH WIND       PRES   REMARKS
MEDFORD        NOT AVBL
WAUSAU         CLOUDY    55  21  26 E16G23    29.93S
MOSINEE        SUNNY     52  21  30 E12G22    29.96R
MARSHFIELD     CLOUDY    52  23  32 E17       29.92F
WISC RAPIDS    CLOUDY    52  22  30 E20G25    29.94F
STEVENS POINT  NOT AVBL
WAUPACA        CLOUDY    52  28  38 E12G18    29.98S
SHAWANO        CLOUDY    51  21  30 E16G22    29.99F
CLINTONVILLE   NOT AVBL
WAUTOMA        NOT AVBL
$$

WIZ038-039-048-051-272200-
FOX VALLEY

CITY           SKY/WX    TMP DP  RH WIND       PRES   REMARKS
NWS GREEN BAY  CLOUDY    48  24  39 NE18      29.99F
APPLETON       NOT AVBL
OSHKOSH        CLOUDY    49  25  39 E13       29.97R
FOND DU LAC    CLOUDY    51  26  37 NE17      29.96R
$$

WIZ022-050-052-272200-
EAST CENTRAL WISCONSIN

CITY           SKY/WX    TMP DP  RH WIND       PRES   REMARKS
EPHRAIM        NOT AVBL
STURGEON BAY   MOSUNNY   46  21  36 NE12G20   30.04F
MANITOWOC      NOT AVBL
SHEBOYGAN      PTSUNNY   45  25  45 NE23      29.98S
$$

LMZ563-521-522-541>543-272200-
LAKESHORE

STATION/POSITION TIME  TEMP    WIND        PRES    VSBY  WAVE
                       AIR SEA DIR/SP/G                  HT/PER
                 (UTC) (F)     (DEG/KT/KT) (MB)    (MI)  (FT/S)
SHEBOYGAN LKSHOR 2000   40      20/ 22/ 25 1015.9F
KEWAUNEE LKSHORE 2000   41      30/ 17/ 23 1015.9F
NORTHPORT PIER   2000   40     130/  3/  5 1017.9S
N MID LAKE BUOY  1950   39 38  120/ 10/ 12 1017.9F         1/ 4
CHAMBERS ISLAND  2000   44      80/  6/ 12 1017.6F
MENOMINEE LKSHOR 2000   42      50/  8/  9 1016.3F
$$




USA.gov is the U.S. government's official web portal to all federal, state and local government web resources and services.